Flag for Germany Weather past 2 weeks in Vaihingen an der Enz, Baden-Württemberg, Germany

Now
43 °F

Broken clouds.


Feels Like: 37 °F
Forecast: 34 / 42 °F
Wind: 10 mph from West

Location: Stuttgart-Echterdingen

Current Time: Mar 4, 2015 at 1:15:15 PM

Latest Report: Mar 4, 2015 at 12:20 PM


Visibility: N/A

Pressure: 30.30 "Hg

Humidity: 49%

Dew point: 25 °F

Location of Vaihingen an der EnzLocation

Historic Weather in Vaihingen an der Enz — Graph

°F

Vaihingen an der Enz temperature yesterday

Maximum temperature yesterday: 50 °F (at 2:20 PM)
Minimum temperature yesterday: 36 °F (at 12:50 AM)
Average temperature yesterday: 42 °F

Past Weeks' High & Low Weather Summary

 TemperatureHumidityPressure
High55 °F (Feb 20, 2:20 PM)100% (Feb 17, 11:20 AM)30.69 "Hg (Feb 17, 11:20 AM)
Low23 °F (Feb 20, 4:20 AM)34% (Feb 26, 3:20 PM)29.50 "Hg (Feb 23, 3:20 PM)
Average37 °F80%30.01 "Hg
* Reported Feb 17 11:20 AM — Mar 4 11:50 AM, Vaihingen an der Enz, Weather by CustomWeather, © 2015

Note: Actual official high and low records may vary slightly from our data, if they occured in-between our weather recording intervals... More about our weather records

Advertising

Vaihingen an der Enz weather history for previous 24 hours

 ConditionsComfort  
Time TempWeatherWind HumidityBarometerVisibility
11:50 AM
Wed, Mar 4
41 °FBroken clouds.10 mph57%30.30 "HgN/A
11:20 AM41 °FBroken clouds.9 mph61%30.30 "HgN/A
10:50 AM41 °FBroken clouds.9 mph66%30.30 "HgN/A
10:20 AM41 °FBroken clouds.10 mph61%30.27 "HgN/A
9:50 AM39 °FBroken clouds.9 mph70%30.27 "HgN/A
9:20 AM39 °FBroken clouds.6 mph70%30.30 "HgN/A
8:50 AM37 °FPartly sunny.3 mph81%30.27 "HgN/A
8:20 AM36 °FPartly sunny.3 mph87%30.27 "HgN/A
7:50 AM36 °FPartly sunny.6 mph81%30.27 "HgN/A
7:20 AM36 °FPartly sunny.7 mph81%30.24 "HgN/A
6:50 AM36 °FPassing clouds.14 mph81%30.24 "HgN/A
6:20 AM37 °FPartly cloudy.14 mph75%30.24 "HgN/A
5:50 AM37 °FPartly cloudy.12 mph75%30.21 "HgN/A
5:20 AM37 °FPartly cloudy.12 mph81%30.21 "HgN/A
4:50 AM37 °FPassing clouds.7 mph81%30.21 "HgN/A
4:20 AM37 °FPartly cloudy.2 mph81%30.21 "HgN/A
3:50 AM37 °FPartly cloudy.5 mph81%30.18 "HgN/A
3:20 AM37 °FPassing clouds.5 mph81%30.18 "HgN/A
2:50 AM37 °FPartly cloudy.7 mph81%30.18 "HgN/A
2:20 AM37 °FSprinkles. Passing clouds.6 mph87%30.18 "HgN/A
1:50 AM37 °FSprinkles. Passing clouds.15 mph81%30.15 "HgN/A
1:20 AM39 °FSprinkles. Partly cloudy.17 mph81%30.15 "HgN/A
12:50 AM39 °FSprinkles. Passing clouds.16 mph87%30.15 "HgN/A
12:20 AM41 °FSprinkles. Passing clouds.24 mph81%30.12 "HgN/A
11:50 PM
Tue, Mar 3
43 °FPassing clouds.12 mph66%30.09 "HgN/A
11:20 PM45 °FPassing clouds.9 mph57%30.09 "HgN/A
10:50 PM45 °FPassing clouds.7 mph57%30.09 "HgN/A
10:20 PM45 °FPassing clouds.7 mph61%30.09 "HgN/A
9:50 PM45 °FPassing clouds.12 mph57%30.09 "HgN/A
9:20 PM46 °FPassing clouds.8 mph53%30.09 "HgN/A
8:50 PM45 °FPassing clouds.8 mph57%30.09 "HgN/A
8:20 PM46 °FPassing clouds.8 mph57%30.09 "HgN/A
7:50 PM46 °FPassing clouds.10 mph57%30.09 "HgN/A
7:20 PM46 °FPassing clouds.12 mph57%30.09 "HgN/A
6:50 PM46 °FPassing clouds.7 mph57%30.09 "HgN/A
6:20 PM46 °FPassing clouds.7 mph57%30.09 "HgN/A
5:50 PM48 °FPassing clouds.6 mph50%30.09 "HgN/A
5:20 PM48 °FPassing clouds.8 mph50%30.09 "HgN/A
4:50 PM48 °FPassing clouds.14 mph43%30.09 "HgN/A
4:20 PM50 °FSunny.15 mph43%30.09 "Hg10 mi
3:50 PM48 °FPassing clouds.12 mph46%30.09 "HgN/A
3:20 PM50 °FPassing clouds.10 mph43%30.12 "HgN/A
2:50 PM50 °FPassing clouds.12 mph47%30.12 "HgN/A
2:20 PM50 °FScattered clouds.14 mph50%30.12 "HgN/A
1:50 PM48 °FScattered clouds.12 mph54%30.12 "HgN/A
1:20 PM48 °FScattered clouds.12 mph54%30.15 "HgN/A
Weather by CustomWeather, © 2015

See weather overviewHow to use our weather pages